Home   Weather   Portland   Past weeks
Flag for USA

Past Weather in Portland, Oregon, USA — Yesterday and Last 2 Weeks

Now
63 °F

Cloudy.


Feels Like: 63 °F
Forecast: 57 / 53 °F
Wind: No wind

Location: Portland International Airport

Current Time: Oct 15, 2019 at 5:44:16 pm

Latest Report: Oct 15, 2019 at 4:53 pm


Visibility: 10 mi

Pressure: 30.01 "Hg

Humidity: 52%

Dew Point: 45 °F

Location of PortlandLocation

Past Weather in Portland — Graph

°F

Portland Temperature Yesterday

Maximum temperature yesterday: 63 °F (at 4:53 pm)
Minimum temperature yesterday: 40 °F (at 7:06 am)
Average temperature yesterday: 50 °F

High & Low Weather Summary for the Past Weeks

 TemperatureHumidityPressure
High71 °F (Oct 6, 4:53 pm)97% (Oct 6, 4:53 am)30.42 "Hg (Oct 6, 4:53 am)
Low37 °F (Oct 1, 6:53 am)25% (Oct 10, 3:53 pm)29.90 "Hg (Oct 7, 9:53 pm)
Average53 °F67%30.13 "Hg
* Reported Sep 30 3:53 pm — Oct 15 3:53 pm, Portland. Weather by CustomWeather, © 2019

Note: Actual official high and low records may vary slightly from our data, if they occured in-between our weather recording intervals... More about our weather records

Advertising

Portland Weather History for the Previous 24 Hours

Scroll right to see more
 ConditionsComfort  
Time TempWeatherWind HumidityBarometerVisibility
3:53 pm
Tue, Oct 15
62 °FMore clouds than sun.3 mph56%30.00 "Hg10 mi
2:53 pm62 °FMostly cloudy.8 mph54%30.02 "Hg10 mi
1:53 pm60 °FMostly cloudy.9 mph62%30.04 "Hg10 mi
12:53 pm59 °FMostly cloudy.9 mph64%30.06 "Hg10 mi
11:53 am60 °FPartly sunny.10 mph60%30.06 "Hg10 mi
10:53 am57 °FBroken clouds.6 mph64%30.06 "Hg10 mi
9:53 am53 °FBroken clouds.3 mph69%30.05 "Hg10 mi
8:53 am50 °FPartly sunny.6 mph74%30.02 "Hg10 mi
7:53 am45 °FPartly sunny.3 mph82%30.00 "Hg10 mi
6:53 am46 °FPassing clouds.No wind83%29.99 "Hg10 mi
5:53 am44 °FPassing clouds.3 mph89%29.99 "Hg10 mi
4:53 am44 °FPassing clouds.No wind89%29.99 "Hg10 mi
3:53 am44 °FClear.3 mph85%30.00 "Hg10 mi
2:53 am45 °FClear.3 mph82%30.01 "Hg10 mi
11:53 pm
Mon, Oct 14
47 °FClear.No wind83%30.02 "Hg10 mi
10:53 pm47 °FPassing clouds.No wind80%30.03 "Hg10 mi
9:53 pm50 °FPassing clouds.No wind71%30.03 "Hg10 mi
8:53 pm51 °FPassing clouds.3 mph69%30.04 "Hg10 mi
7:53 pm54 °FPassing clouds.No wind59%30.02 "Hg10 mi
6:53 pm56 °FPassing clouds.No wind58%30.01 "Hg10 mi
5:53 pm61 °FPartly sunny.6 mph48%30.02 "Hg10 mi
Weather by CustomWeather, © 2019

See weather overview